,,Stat5,,Stat1,,Stat2,,Stat3,,Stat4,,Wind1,,Wind1,
time,status,PA1M_AVG,status,PR1M_SUM,status,RH1M_AVG,status,SR1M_AVG,status,TA1M_AVG,status,W1dAve1m,status,W1sAve1m,
2002-11-11, 00:00:00,VALID,918.783,VALID,0,VALID,97.4481,VALID,0.0339617,VALID,19.744,VALID,122,VALID,0.778577,
2002-11-11, 00:01:00,VALID,918.788,VALID,0,VALID,97.4672,VALID,0.0169808,VALID,19.7208,VALID,132,VALID,1.04139,
2002-11-11, 00:02:00,VALID,918.771,VALID,0,VALID,97.3006,VALID,0.0339617,VALID,19.7246,VALID,144,VALID,1.59595,
2002-11-11, 00:03:01,VALID,918.764,VALID,0,VALID,97.2599,VALID,0.0509425,VALID,19.7305,VALID,141,VALID,1.15625,
2002-11-11, 00:04:01,VALID,918.765,VALID,0,VALID,97.218,VALID,0,VALID,19.7536,VALID,129,VALID,0.952908,
2002-11-11, 00:05:00,VALID,918.748,VALID,0,VALID,97.2294,VALID,-0.0849042,VALID,19.7551,VALID,134,VALID,0.827178,
2002-11-11, 00:06:00,VALID,918.74,VALID,0,VALID,97.1582,VALID,-0.0509425,VALID,19.7454,VALID,123,VALID,1.36285,
2002-11-11, 00:07:00,VALID,918.724,VALID,0,VALID,97.1302,VALID,-0.0679233,VALID,19.729,VALID,113,VALID,1.00109,
2002-11-11, 00:08:00,VALID,918.707,VALID,0,VALID,97.1328,VALID,-0.101885,VALID,19.7449,VALID,82,VALID,1.32244,
2002-11-11, 00:09:00,VALID,918.703,VALID,0,VALID,97.0196,VALID,-0.0679233,VALID,19.7417,VALID,130,VALID,1.6231,
2002-11-11, 00:10:00,VALID,918.724,VALID,0,VALID,96.9153,VALID,-0.0849042,VALID,19.7584,VALID,106,VALID,1.22909,
2002-11-11, 00:11:01,VALID,918.722,VALID,0,VALID,96.7805,VALID,-0.0339617,VALID,19.7745,VALID,137,VALID,1.85914,
2002-11-11, 00:12:00,VALID,918.718,VALID,0,VALID,96.6381,VALID,-0.0169808,VALID,19.7867,VALID,139,VALID,1.71766,
2002-11-11, 00:13:01,VALID,918.712,VALID,0,VALID,96.6419,VALID,-0.0339617,VALID,19.8195,VALID,92,VALID,0.934028,
2002-11-11, 00:14:00,VALID,918.702,VALID,0,VALID,96.6178,VALID,-0.0679233,VALID,19.8197,VALID,103,VALID,1.09706,
2002-11-11, 00:15:00,VALID,918.699,VALID,0,VALID,96.5504,VALID,-0.118866,VALID,19.8036,VALID,111,VALID,1.39443,
2002-11-11, 00:16:00,VALID,918.703,VALID,0,VALID,96.5771,VALID,-0.101885,VALID,19.8195,VALID,95,VALID,1.04366,
2002-11-11, 00:17:00,VALID,918.697,VALID,0,VALID,96.6369,VALID,-0.101885,VALID,19.8297,VALID,98,VALID,1.16193,
2002-11-11, 00:18:00,VALID,918.699,VALID,0,VALID,96.4576,VALID,-0.0679233,VALID,19.8197,VALID,100,VALID,1.4145,
2002-11-11, 00:19:00,VALID,918.691,VALID,0,VALID,96.3317,VALID,-0.0849042,VALID,19.8426,VALID,92,VALID,1.39019,
2002-11-11, 00:20:01,VALID,918.696,VALID,0,VALID,96.3686,VALID,0.0169808,VALID,19.8501,VALID,89,VALID,1.04616,
2002-11-11, 00:21:00,VALID,918.701,VALID,0,VALID,96.5135,VALID,0.0679233,VALID,19.8635,VALID,101,VALID,0.715372,
2002-11-11, 00:22:01,VALID,918.698,VALID,0,VALID,96.6165,VALID,0.0509425,VALID,19.8438,VALID,95,VALID,1.03516,
2002-11-11, 00:23:00,VALID,918.689,VALID,0,VALID,96.7017,VALID,0.0509425,VALID,19.8215,VALID,99,VALID,1.44886,
2002-11-11, 00:24:00,VALID,918.681,VALID,0,VALID,96.7742,VALID,0.0679233,VALID,19.7917,VALID,87,VALID,1.22483,
2002-11-11, 00:25:00,VALID,918.669,VALID,0,VALID,96.8721,VALID,0.0509425,VALID,19.776,VALID,100,VALID,1.23351,
2002-11-11, 00:26:00,VALID,918.66,VALID,0,VALID,96.9853,VALID,0.0509425,VALID,19.7658,VALID,104,VALID,1.19247,
2002-11-11, 00:27:00,VALID,918.664,VALID,0,VALID,97.0616,VALID,0.0339617,VALID,19.773,VALID,104,VALID,1.11845,
2002-11-11, 00:28:00,VALID,918.656,VALID,0,VALID,97.1544,VALID,0.0339617,VALID,19.77,VALID,88,VALID,1.03171,
2002-11-11, 00:29:01,VALID,918.629,VALID,0,VALID,97.251,VALID,0.0339617,VALID,19.7599,VALID,92,VALID,1.13329,
2002-11-11, 00:30:00,VALID,918.621,VALID,0,VALID,97.3108,VALID,0.0509425,VALID,19.7432,VALID,95,VALID,0.854818,
2002-11-11, 00:31:01,VALID,918.62,VALID,0,VALID,97.3846,VALID,0.0169808,VALID,19.7472,VALID,94,VALID,1.1276,
2002-11-11, 00:32:00,VALID,918.6,VALID,0,VALID,97.4354,VALID,0.0339617,VALID,19.734,VALID,90,VALID,0.890625,
2002-11-11, 00:33:00,VALID,918.593,VALID,0,VALID,97.4965,VALID,0.0509425,VALID,19.7179,VALID,93,VALID,1.13915,
2002-11-11, 00:34:00,VALID,918.585,VALID,0,VALID,97.5486,VALID,0.0509425,VALID,19.7149,VALID,102,VALID,1.09007,
2002-11-11, 00:35:00,VALID,918.597,VALID,0,VALID,97.5893,VALID,-0.0339617,VALID,19.7129,VALID,98,VALID,1.0187,
2002-11-11, 00:36:00,VALID,918.574,VALID,0,VALID,97.5779,VALID,-0.0509425,VALID,19.7194,VALID,124,VALID,1.48264,
2002-11-11, 00:37:00,VALID,918.568,VALID,0,VALID,97.5181,VALID,-0.0679233,VALID,19.7223,VALID,101,VALID,1.11675,
2002-11-11, 00:38:01,VALID,918.568,VALID,0,VALID,97.4812,VALID,-0.0679233,VALID,19.7452,VALID,85,VALID,0.919034,
2002-11-11, 00:39:00,VALID,918.544,VALID,0,VALID,97.5092,VALID,-0.0339617,VALID,19.7514,VALID,84,VALID,0.784417,
2002-11-11, 00:40:01,VALID,918.532,VALID,0,VALID,97.4939,VALID,-0.0169808,VALID,19.7387,VALID,115,VALID,1.31756,
2002-11-11, 00:41:00,VALID,918.531,VALID,0,VALID,97.527,VALID,-0.0679233,VALID,19.7323,VALID,109,VALID,0.952888,
2002-11-11, 00:42:00,VALID,918.531,VALID,0,VALID,97.5613,VALID,-0.0339617,VALID,19.7189,VALID,103,VALID,1.04774,
2002-11-11, 00:43:00,VALID,918.523,VALID,0,VALID,97.5817,VALID,-0.0849042,VALID,19.7258,VALID,113,VALID,1.06141,
2002-11-11, 00:44:00,VALID,918.504,VALID,0,VALID,97.6122,VALID,-0.0339617,VALID,19.7293,VALID,106,VALID,0.795691,
2002-11-11, 00:45:00,VALID,918.495,VALID,0,VALID,97.6414,VALID,-0.0509425,VALID,19.7164,VALID,115,VALID,1.10072,
2002-11-11, 00:46:00,VALID,918.48,VALID,0,VALID,97.6669,VALID,-0.0509425,VALID,19.7131,VALID,101,VALID,0.877528,
2002-11-11, 00:47:01,VALID,918.479,VALID,0,VALID,97.6427,VALID,-0.0339617,VALID,19.7094,VALID,101,VALID,1.27486,
2002-11-11, 00:48:00,VALID,918.468,VALID,0,VALID,97.6313,VALID,-0.0509425,VALID,19.7196,VALID,107,VALID,0.957465,
2002-11-11, 00:49:01,VALID,918.454,VALID,0,VALID,97.5829,VALID,-0.101885,VALID,19.7226,VALID,114,VALID,1.34288,
2002-11-11, 00:50:00,VALID,918.432,VALID,0.2,VALID,97.5155,VALID,-0.0849042,VALID,19.733,VALID,124,VALID,1.63045,
2002-11-11, 00:51:00,VALID,918.422,VALID,0,VALID,97.4291,VALID,-0.0849042,VALID,19.7422,VALID,108,VALID,1.21009,
2002-11-11, 00:52:00,VALID,918.409,VALID,0,VALID,97.4253,VALID,-0.0509425,VALID,19.7417,VALID,108,VALID,1.0864,
2002-11-11, 00:53:00,VALID,918.392,VALID,0,VALID,97.4647,VALID,-0.0849042,VALID,19.7554,VALID,131,VALID,0.900568,
2002-11-11, 00:54:00,VALID,918.381,VALID,0,VALID,97.4888,VALID,-0.0849042,VALID,19.7522,VALID,135,VALID,1.02452,
2002-11-11, 00:55:00,VALID,918.355,VALID,0,VALID,97.4723,VALID,-0.0679233,VALID,19.7489,VALID,107,VALID,0.773003,
2002-11-11, 00:56:01,VALID,918.35,VALID,0,VALID,97.4799,VALID,-0.0849042,VALID,19.7392,VALID,97,VALID,0.638731,
2002-11-11, 00:57:00,VALID,918.333,VALID,0.2,VALID,97.5003,VALID,-0.0849042,VALID,19.7325,VALID,128,VALID,1.10853,
2002-11-11, 00:58:01,VALID,918.311,VALID,0,VALID,97.5689,VALID,-0.0849042,VALID,19.7258,VALID,117,VALID,0.896369,
2002-11-11, 00:59:00,VALID,918.299,VALID,0,VALID,97.6262,VALID,-0.0509425,VALID,19.7328,VALID,130,VALID,1.24077,
2002-11-11, 01:00:00,VALID,918.294,VALID,0,VALID,97.6948,VALID,-0.0509425,VALID,19.7159,VALID,103,VALID,0.820313,
2002-11-11, 01:01:00,VALID,918.28,VALID,0,VALID,97.7101,VALID,-0.0849042,VALID,19.7358,VALID,129,VALID,1.12956,
2002-11-11, 01:02:00,VALID,918.268,VALID,0,VALID,97.7037,VALID,-0.0169808,VALID,19.7323,VALID,117,VALID,1.009,
2002-11-11, 01:03:00,VALID,918.261,VALID,0,VALID,97.7177,VALID,-0.0849042,VALID,19.7191,VALID,123,VALID,0.900127,
2002-11-11, 01:04:00,VALID,918.247,VALID,0.2,VALID,97.6961,VALID,-0.0339617,VALID,19.7325,VALID,109,VALID,0.995634,
2002-11-11, 01:05:01,VALID,918.24,VALID,0,VALID,97.6999,VALID,-0.0509425,VALID,19.7228,VALID,111,VALID,1.08168,
2002-11-11, 01:06:00,VALID,918.224,VALID,0,VALID,97.7444,VALID,-0.0679233,VALID,19.7161,VALID,125,VALID,0.958767,
2002-11-11, 01:07:01,VALID,918.222,VALID,0,VALID,97.7635,VALID,-0.0679233,VALID,19.7228,VALID,112,VALID,1.51432,
2002-11-11, 01:08:00,VALID,918.207,VALID,0.2,VALID,97.8195,VALID,-0.0679233,VALID,19.7134,VALID,119,VALID,0.883286,
2002-11-11, 01:09:00,VALID,918.194,VALID,0,VALID,97.8741,VALID,-0.0849042,VALID,19.7166,VALID,107,VALID,1.01774,
2002-11-11, 01:10:00,VALID,918.163,VALID,0,VALID,97.9517,VALID,-0.0849042,VALID,19.7067,VALID,112,VALID,1.31457,
2002-11-11, 01:11:00,VALID,918.165,VALID,0,VALID,98.0153,VALID,-0.0509425,VALID,19.7037,VALID,119,VALID,1.26018,
2002-11-11, 01:12:00,VALID,918.142,VALID,0,VALID,98.0941,VALID,-0.0679233,VALID,19.6808,VALID,131,VALID,1.10373,
2002-11-11, 01:13:00,VALID,918.118,VALID,0,VALID,98.1704,VALID,-0.0509425,VALID,19.6711,VALID,135,VALID,1.38346,
2002-11-11, 01:14:01,VALID,918.121,VALID,0.2,VALID,98.1971,VALID,-0.0679233,VALID,19.6617,VALID,125,VALID,1.36174,
2002-11-11, 01:15:01,VALID,918.089,VALID,0,VALID,98.2213,VALID,-0.0679233,VALID,19.6647,VALID,133,VALID,1.24134,
2002-11-11, 01:16:01,VALID,918.082,VALID,0,VALID,98.2658,VALID,-0.0679233,VALID,19.6709,VALID,136,VALID,1.12822,
2002-11-11, 01:17:00,VALID,918.073,VALID,0,VALID,98.2582,VALID,-0.0339617,VALID,19.6644,VALID,120,VALID,1.41998,
2002-11-11, 01:18:01,VALID,918.054,VALID,0,VALID,98.2505,VALID,-0.0339617,VALID,19.6446,VALID,120,VALID,1.7296,
2002-11-11, 01:19:00,VALID,918.044,VALID,0,VALID,98.2861,VALID,-0.0849042,VALID,19.6612,VALID,133,VALID,1.17209,
2002-11-11, 01:20:00,VALID,918.04,VALID,0,VALID,98.309,VALID,0.0339617,VALID,19.6565,VALID,107,VALID,1.15601,
2002-11-11, 01:21:00,VALID,918.022,VALID,0.2,VALID,98.3281,VALID,0.0509425,VALID,19.65,VALID,113,VALID,1.0815,
2002-11-11, 01:22:00,VALID,918.001,VALID,0,VALID,98.3637,VALID,0.0169808,VALID,19.6441,VALID,124,VALID,1.08387,
2002-11-11, 01:23:01,VALID,917.989,VALID,0,VALID,98.3446,VALID,0.0339617,VALID,19.6376,VALID,107,VALID,1.24242,
2002-11-11, 01:24:01,VALID,917.975,VALID,0,VALID,98.3192,VALID,0.0169808,VALID,19.6408,VALID,116,VALID,1.33398,
2002-11-11, 01:25:01,VALID,917.955,VALID,0,VALID,98.3192,VALID,0.0169808,VALID,19.6438,VALID,118,VALID,0.886936,
2002-11-11, 01:26:00,VALID,917.943,VALID,0,VALID,98.3205,VALID,0.0169808,VALID,19.648,VALID,103,VALID,0.692708,
2002-11-11, 01:27:01,VALID,917.912,VALID,0,VALID,98.3179,VALID,0,VALID,19.6344,VALID,116,VALID,0.765836,
2002-11-11, 01:28:00,VALID,917.898,VALID,0,VALID,98.3103,VALID,0.0169808,VALID,19.6244,VALID,140,VALID,1.00046,
2002-11-11, 01:29:00,VALID,917.884,VALID,0,VALID,98.2887,VALID,0.0169808,VALID,19.6319,VALID,138,VALID,1.36861,
2002-11-11, 01:30:01,VALID,917.869,VALID,0,VALID,98.2276,VALID,0.0509425,VALID,19.6182,VALID,153,VALID,1.52105,
2002-11-11, 01:31:01,VALID,917.862,VALID,0,VALID,98.1564,VALID,0.0169808,VALID,19.6177,VALID,137,VALID,1.41927,
2002-11-11, 01:32:01,VALID,917.855,VALID,0,VALID,98.1196,VALID,0.0169808,VALID,19.6411,VALID,142,VALID,1.08665,
2002-11-11, 01:33:01,VALID,917.829,VALID,0,VALID,98.0572,VALID,0.0339617,VALID,19.6473,VALID,151,VALID,1.26309,
2002-11-11, 01:34:01,VALID,917.805,VALID,0,VALID,98.0051,VALID,0.0679233,VALID,19.6468,VALID,143,VALID,1.38764,
2002-11-11, 01:35:01,VALID,917.8,VALID,0,VALID,97.9593,VALID,-0.0509425,VALID,19.6518,VALID,157,VALID,0.859375,
2002-11-11, 01:36:01,VALID,917.785,VALID,0,VALID,97.8958,VALID,-0.0169808,VALID,19.6582,VALID,122,VALID,1.26845,
2002-11-11, 01:37:01,VALID,917.776,VALID,0,VALID,97.8525,VALID,-0.0169808,VALID,19.6684,VALID,125,VALID,0.849826,
2002-11-11, 01:38:01,VALID,917.78,VALID,0,VALID,97.8029,VALID,-0.0169808,VALID,19.6518,VALID,142,VALID,1.71875,
2002-11-11, 01:39:01,VALID,917.773,VALID,0,VALID,97.7419,VALID,-0.0169808,VALID,19.6647,VALID,147,VALID,1.3598,
2002-11-11, 01:40:01,VALID,917.753,VALID,0,VALID,97.7228,VALID,-0.0679233,VALID,19.6744,VALID,133,VALID,0.965993,
2002-11-11, 01:41:01,VALID,917.75,VALID,0,VALID,97.705,VALID,-0.0169808,VALID,19.6908,VALID,139,VALID,0.811316,
2002-11-11, 01:42:01,VALID,917.738,VALID,0,VALID,97.6414,VALID,-0.0169808,VALID,19.6739,VALID,129,VALID,1.26671,
2002-11-11, 01:43:01,VALID,917.741,VALID,0,VALID,97.6122,VALID,-0.0339617,VALID,19.6714,VALID,119,VALID,1.39475,
2002-11-11, 01:44:01,VALID,917.732,VALID,0,VALID,97.5829,VALID,-0.0509425,VALID,19.6779,VALID,127,VALID,1.20928,
2002-11-11, 01:45:01,VALID,917.723,VALID,0,VALID,97.5588,VALID,-0.0339617,VALID,19.6811,VALID,129,VALID,1.3163,
2002-11-11, 01:46:01,VALID,917.703,VALID,0,VALID,97.4939,VALID,-0.0169808,VALID,19.6808,VALID,123,VALID,1.20404,
2002-11-11, 01:47:01,VALID,917.691,VALID,0,VALID,97.4507,VALID,0,VALID,19.697,VALID,134,VALID,1.19792,
2002-11-11, 01:48:01,VALID,917.679,VALID,0,VALID,97.4049,VALID,-0.0509425,VALID,19.6967,VALID,128,VALID,1.29427,
2002-11-11, 01:49:01,VALID,917.663,VALID,0,VALID,97.3528,VALID,-0.0509425,VALID,19.7002,VALID,119,VALID,1.12782,
2002-11-11, 01:50:00,VALID,917.638,VALID,0,VALID,97.3172,VALID,-0.0169808,VALID,19.7,VALID,130,VALID,1.12713,
2002-11-11, 01:51:00,VALID,917.618,VALID,0,VALID,97.2854,VALID,-0.0509425,VALID,19.7005,VALID,139,VALID,1.40498,
2002-11-11, 01:52:00,VALID,917.597,VALID,0,VALID,97.2968,VALID,0,VALID,19.6873,VALID,111,VALID,1.03883,
2002-11-11, 01:53:00,VALID,917.568,VALID,0,VALID,97.2002,VALID,-0.0679233,VALID,19.691,VALID,125,VALID,1.59304,
2002-11-11, 01:54:00,VALID,917.523,VALID,0,VALID,97.2053,VALID,-0.0169808,VALID,19.6873,VALID,129,VALID,1.12153,
2002-11-11, 01:55:00,VALID,917.502,VALID,0,VALID,97.246,VALID,-0.101885,VALID,19.6943,VALID,129,VALID,0.742839,
2002-11-11, 01:56:00,VALID,917.481,VALID,0,VALID,97.1442,VALID,-0.0339617,VALID,19.6878,VALID,114,VALID,1.43892,
2002-11-11, 01:57:00,VALID,917.45,VALID,0,VALID,97.0476,VALID,-0.0509425,VALID,19.6843,VALID,120,VALID,1.54709,
2002-11-11, 01:58:00,VALID,917.437,VALID,0,VALID,96.8861,VALID,-0.0509425,VALID,19.6709,VALID,122,VALID,2.45841,
2002-11-11, 01:59:00,VALID,917.404,VALID,0,VALID,96.7411,VALID,-0.0679233,VALID,19.7005,VALID,106,VALID,1.50758,
2002-11-11, 02:00:00,VALID,917.392,VALID,0,VALID,96.7221,VALID,-0.0169808,VALID,19.7064,VALID,113,VALID,1.16688,
2002-11-11, 02:01:00,VALID,917.36,VALID,0,VALID,96.7437,VALID,-0.0509425,VALID,19.6975,VALID,123,VALID,1.06662,
2002-11-11, 02:02:00,VALID,917.351,VALID,0,VALID,96.6852,VALID,-0.0169808,VALID,19.691,VALID,102,VALID,1.05185,
2002-11-11, 02:03:00,VALID,917.332,VALID,0,VALID,96.6178,VALID,-0.0509425,VALID,19.6781,VALID,114,VALID,1.27956,
2002-11-11, 02:04:00,VALID,917.3,VALID,0,VALID,96.633,VALID,-0.0339617,VALID,19.6885,VALID,127,VALID,0.920267,
2002-11-11, 02:05:00,VALID,917.289,VALID,0,VALID,96.4309,VALID,-0.0169808,VALID,19.6647,VALID,139,VALID,1.69673,
2002-11-11, 02:06:00,VALID,917.267,VALID,0,VALID,96.3062,VALID,-0.0339617,VALID,19.6843,VALID,73,VALID,1.08333,
2002-11-11, 02:07:00,VALID,917.226,VALID,0,VALID,96.1282,VALID,0,VALID,19.6935,VALID,111,VALID,1.01866,
2002-11-11, 02:08:00,VALID,916.784,VALID,0,VALID,96.0112,VALID,-0.0679233,VALID,19.7104,VALID,136,VALID,1.32055,
2002-11-11, 02:09:00,VALID,917.178,VALID,0,VALID,95.9171,VALID,-0.0509425,VALID,19.7064,VALID,125,VALID,0.95228,
2002-11-11, 02:10:00,VALID,917.17,VALID,0,VALID,95.8574,VALID,-0.0339617,VALID,19.7295,VALID,105,VALID,1.00092,
2002-11-11, 02:11:00,VALID,917.147,VALID,0,VALID,96.0189,VALID,-0.0849042,VALID,19.7196,VALID,82,VALID,0.379025,
2002-11-11, 02:12:00,VALID,917.134,VALID,0,VALID,96.1613,VALID,-0.0169808,VALID,19.6967,VALID,172,VALID,0.47309,
2002-11-11, 02:13:00,VALID,917.121,VALID,0,VALID,96.2897,VALID,-0.0169808,VALID,19.6905,VALID,143,VALID,0.488281,
2002-11-11, 02:14:00,VALID,917.106,VALID,0,VALID,96.1931,VALID,-0.0509425,VALID,19.6647,VALID,139,VALID,0.895597,
2002-11-11, 02:15:00,VALID,917.086,VALID,0,VALID,96.2923,VALID,-0.0509425,VALID,19.6485,VALID,154,VALID,0.360642,
2002-11-11, 02:16:00,VALID,917.083,VALID,0,VALID,96.3596,VALID,-0.0509425,VALID,19.6294,VALID,130,VALID,0.548024,
2002-11-11, 02:17:00,VALID,917.068,VALID,0,VALID,96.4474,VALID,-0.0169808,VALID,19.61,VALID,171,VALID,0.706676,
2002-11-11, 02:18:00,VALID,917.07,VALID,0,VALID,96.53,VALID,-0.0509425,VALID,19.5772,VALID,176,VALID,0.516276,
2002-11-11, 02:19:00,VALID,917.07,VALID,0,VALID,96.6419,VALID,-0.0169808,VALID,19.5645,VALID,180,VALID,0.181207,
2002-11-11, 02:20:00,VALID,917.049,VALID,0,VALID,96.7589,VALID,0.0849042,VALID,19.5303,VALID,169,VALID,0.569839,
2002-11-11, 02:21:00,VALID,917.052,VALID,0,VALID,96.8746,VALID,0.0679233,VALID,19.4982,VALID,173,VALID,0.499789,
2002-11-11, 02:22:00,VALID,917.048,VALID,0,VALID,97.0234,VALID,0.0849042,VALID,19.4726,VALID,167,VALID,0.641085,
2002-11-11, 02:23:00,VALID,917.045,VALID,0,VALID,97.162,VALID,0.0339617,VALID,19.4498,VALID,168,VALID,0.572443,
2002-11-11, 02:24:00,VALID,917.023,VALID,0,VALID,97.2701,VALID,0.0679233,VALID,19.4242,VALID,171,VALID,0.592231,
2002-11-11, 02:25:00,VALID,916.994,VALID,0,VALID,97.3858,VALID,0.0679233,VALID,19.3914,VALID,179,VALID,1.1582,
2002-11-11, 02:26:00,VALID,916.991,VALID,0,VALID,97.4965,VALID,0.0679233,VALID,19.3822,VALID,158,VALID,1.17022,
2002-11-11, 02:27:00,VALID,916.975,VALID,0,VALID,97.5677,VALID,0.101885,VALID,19.369,VALID,162,VALID,0.994088,
2002-11-11, 02:28:00,VALID,916.957,VALID,0,VALID,97.6262,VALID,0.0849042,VALID,19.3663,VALID,170,VALID,0.85455,
2002-11-11, 02:29:00,VALID,916.934,VALID,0,VALID,97.6694,VALID,0.101885,VALID,19.3499,VALID,154,VALID,0.729167,
2002-11-11, 02:30:00,VALID,916.92,VALID,0,VALID,97.7139,VALID,0.101885,VALID,19.337,VALID,160,VALID,0.656033,
2002-11-11, 02:31:00,VALID,916.885,VALID,0,VALID,97.7648,VALID,0.0679233,VALID,19.3176,VALID,164,VALID,0.655165,
2002-11-11, 02:32:00,VALID,916.877,VALID,0,VALID,97.8284,VALID,0.101885,VALID,19.2851,VALID,139,VALID,0.357008,
2002-11-11, 02:33:00,VALID,916.863,VALID,0,VALID,97.8868,VALID,0.0849042,VALID,19.2791,VALID,139,VALID,0.411951,
2002-11-11, 02:34:00,VALID,916.843,VALID,0,VALID,97.9835,VALID,0.101885,VALID,19.2465,VALID,168,VALID,1.08732,
2002-11-11, 02:35:00,VALID,916.824,VALID,0,VALID,98.0661,VALID,-0.0339617,VALID,19.2708,VALID,168,VALID,0.951231,
2002-11-11, 02:36:00,VALID,916.814,VALID,0,VALID,98.0839,VALID,0,VALID,19.2507,VALID,170,VALID,0.953776,
2002-11-11, 02:37:00,VALID,916.801,VALID,0,VALID,98.1145,VALID,-0.0169808,VALID,19.248,VALID,173,VALID,1.30556,
2002-11-11, 02:38:00,VALID,916.783,VALID,0,VALID,98.1653,VALID,-0.0169808,VALID,19.245,VALID,169,VALID,1.09351,
2002-11-11, 02:39:00,VALID,916.76,VALID,0,VALID,98.1819,VALID,-0.0339617,VALID,19.2614,VALID,164,VALID,0.967905,
2002-11-11, 02:40:00,VALID,916.748,VALID,0,VALID,98.1412,VALID,0,VALID,19.2478,VALID,153,VALID,0.682675,
2002-11-11, 02:41:00,VALID,916.735,VALID,0,VALID,98.1819,VALID,-0.0339617,VALID,19.2348,VALID,148,VALID,1.17661,
2002-11-11, 02:42:00,VALID,916.718,VALID,0,VALID,98.2225,VALID,-0.0169808,VALID,19.2351,VALID,153,VALID,0.957248,
2002-11-11, 02:43:00,VALID,916.699,VALID,0,VALID,98.2137,VALID,0,VALID,19.2222,VALID,145,VALID,0.606337,
2002-11-11, 02:44:00,VALID,916.692,VALID,0,VALID,98.2238,VALID,0,VALID,19.2058,VALID,150,VALID,1.41383,
2002-11-11, 02:45:00,VALID,916.687,VALID,0,VALID,98.3014,VALID,0,VALID,19.2058,VALID,170,VALID,1.10093,
2002-11-11, 02:46:00,VALID,916.677,VALID,0,VALID,98.3281,VALID,0,VALID,19.206,VALID,159,VALID,0.940257,
2002-11-11, 02:47:00,VALID,916.658,VALID,0,VALID,98.3434,VALID,0,VALID,19.1995,VALID,164,VALID,0.932055,
2002-11-11, 02:48:00,VALID,916.651,VALID,0,VALID,98.3891,VALID,-0.0339617,VALID,19.1993,VALID,146,VALID,0.917101,
2002-11-11, 02:49:00,VALID,916.637,VALID,0,VALID,98.4108,VALID,-0.0339617,VALID,19.1993,VALID,167,VALID,1.20725,
2002-11-11, 02:50:00,VALID,916.619,VALID,0,VALID,98.4743,VALID,-0.118866,VALID,19.201,VALID,161,VALID,1.4214,
2002-11-11, 02:51:00,VALID,916.614,VALID,0,VALID,98.4896,VALID,-0.101885,VALID,19.204,VALID,161,VALID,1.22276,
2002-11-11, 02:52:00,VALID,916.602,VALID,0,VALID,98.4998,VALID,-0.0849042,VALID,19.2012,VALID,168,VALID,1.40671,
2002-11-11, 02:53:00,VALID,916.596,VALID,0,VALID,98.5608,VALID,-0.118866,VALID,19.204,VALID,164,VALID,1.3009,
2002-11-11, 02:54:00,VALID,916.58,VALID,0,VALID,98.5875,VALID,-0.118866,VALID,19.2075,VALID,152,VALID,1.32378,
2002-11-11, 02:55:00,VALID,916.586,VALID,0,VALID,98.6155,VALID,-0.101885,VALID,19.2169,VALID,161,VALID,1.06619,
2002-11-11, 02:56:00,VALID,916.57,VALID,0,VALID,98.6218,VALID,-0.101885,VALID,19.2072,VALID,166,VALID,1.28267,
2002-11-11, 02:57:00,VALID,916.556,VALID,0,VALID,98.6244,VALID,-0.118866,VALID,19.2174,VALID,154,VALID,1.30215,
2002-11-11, 02:58:00,VALID,916.556,VALID,0,VALID,98.6371,VALID,-0.135847,VALID,19.2174,VALID,154,VALID,1.75115,
2002-11-11, 02:59:00,VALID,916.533,VALID,0,VALID,98.6422,VALID,-0.101885,VALID,19.2176,VALID,160,VALID,1.41667,
2002-11-11, 03:00:00,VALID,916.525,VALID,0,VALID,98.646,VALID,-0.135847,VALID,19.2077,VALID,157,VALID,1.29253,
2002-11-11, 03:01:00,VALID,916.513,VALID,0,VALID,98.6562,VALID,-0.118866,VALID,19.2142,VALID,168,VALID,1.28299,
2002-11-11, 03:02:00,VALID,916.498,VALID,0,VALID,98.6549,VALID,-0.135847,VALID,19.201,VALID,178,VALID,0.981061,
2002-11-11, 03:03:00,VALID,916.472,VALID,0,VALID,98.6714,VALID,-0.101885,VALID,19.195,VALID,166,VALID,1.14421,
2002-11-11, 03:04:00,VALID,916.463,VALID,0,VALID,98.6702,VALID,-0.118866,VALID,19.1784,VALID,173,VALID,1.1597,
2002-11-11, 03:05:00,VALID,916.435,VALID,0,VALID,98.6994,VALID,0,VALID,19.1774,VALID,163,VALID,1.07386,
2002-11-11, 03:06:00,VALID,916.422,VALID,0,VALID,98.707,VALID,-0.0169808,VALID,19.1573,VALID,149,VALID,1.22374,
2002-11-11, 03:07:00,VALID,916.413,VALID,0,VALID,98.7401,VALID,-0.0169808,VALID,19.1643,VALID,164,VALID,1.13216,
2002-11-11, 03:08:00,VALID,916.386,VALID,0,VALID,98.7503,VALID,-0.0169808,VALID,19.1578,VALID,157,VALID,0.858428,
2002-11-11, 03:09:00,VALID,916.37,VALID,0,VALID,98.7388,VALID,-0.0679233,VALID,19.1615,VALID,158,VALID,0.678209,
2002-11-11, 03:10:00,VALID,916.361,VALID,0,VALID,98.7223,VALID,-0.0509425,VALID,19.1479,VALID,151,VALID,0.737132,
2002-11-11, 03:11:00,VALID,916.358,VALID,0,VALID,98.7274,VALID,-0.0339617,VALID,19.1513,VALID,139,VALID,1.42874,
2002-11-11, 03:12:00,VALID,916.35,VALID,0,VALID,98.6854,VALID,-0.0849042,VALID,19.158,VALID,152,VALID,0.75651,
2002-11-11, 03:13:00,VALID,916.348,VALID,0,VALID,98.6714,VALID,-0.0679233,VALID,19.1546,VALID,160,VALID,1.38108,
2002-11-11, 03:14:00,VALID,916.34,VALID,0,VALID,98.6625,VALID,-0.0339617,VALID,19.1511,VALID,146,VALID,1.37642,
2002-11-11, 03:15:00,VALID,916.341,VALID,0,VALID,98.6435,VALID,-0.0849042,VALID,19.1742,VALID,154,VALID,1.34818,
2002-11-11, 03:16:00,VALID,916.329,VALID,0,VALID,98.5888,VALID,-0.0509425,VALID,19.1705,VALID,148,VALID,1.24908,
2002-11-11, 03:17:00,VALID,916.323,VALID,0,VALID,98.5748,VALID,-0.0169808,VALID,19.1672,VALID,152,VALID,1.77391,
2002-11-11, 03:18:00,VALID,916.322,VALID,0,VALID,98.5315,VALID,-0.0339617,VALID,19.1799,VALID,144,VALID,1.62261,
2002-11-11, 03:19:00,VALID,916.31,VALID,0,VALID,98.5163,VALID,-0.0339617,VALID,19.1802,VALID,146,VALID,1.83247,
2002-11-11, 03:20:00,VALID,916.308,VALID,0,VALID,98.4629,VALID,-0.0169808,VALID,19.1802,VALID,130,VALID,1.3956,
2002-11-11, 03:21:00,VALID,916.293,VALID,0,VALID,98.4286,VALID,-0.0339617,VALID,19.1869,VALID,156,VALID,0.773438,
2002-11-11, 03:22:00,VALID,916.294,VALID,0,VALID,98.3942,VALID,-0.0509425,VALID,19.1901,VALID,149,VALID,1.09559,
2002-11-11, 03:23:00,VALID,916.296,VALID,0,VALID,98.3548,VALID,-0.0339617,VALID,19.1834,VALID,144,VALID,1.60488,
2002-11-11, 03:24:00,VALID,916.294,VALID,0,VALID,98.3395,VALID,-0.0679233,VALID,19.1936,VALID,143,VALID,1.48394,
2002-11-11, 03:25:00,VALID,916.282,VALID,0,VALID,98.3357,VALID,-0.0509425,VALID,19.2033,VALID,151,VALID,1.43056,
2002-11-11, 03:26:00,VALID,916.294,VALID,0,VALID,98.3256,VALID,-0.0679233,VALID,19.203,VALID,154,VALID,1.32599,
2002-11-11, 03:27:00,VALID,916.295,VALID,0,VALID,98.3281,VALID,-0.0169808,VALID,19.21,VALID,156,VALID,1.31482,
2002-11-11, 03:28:00,VALID,916.288,VALID,0,VALID,98.3027,VALID,-0.0339617,VALID,19.1963,VALID,155,VALID,1.17188,
2002-11-11, 03:29:00,VALID,916.282,VALID,0,VALID,98.2467,VALID,-0.0509425,VALID,19.1963,VALID,145,VALID,1.35464,